Regional Weather Roundup
Issued by NWS Charleston, WV

Home | Current Version | Previous Version | Graphics & Text | Print | Product List | Glossary On
Versions: 1 2 3 4 5 6 7 8 9 10 11 12 13 14 15 16 17 18 19 20 21 22 23 24 25 26 27 28 29 30 31 32 33 34 35 36 37 38 39 40 41 42 43 44 45 46 47 48 49 50
000
ASUS41 KRLX 031410
RWRRLX
CRWRWRRLX ALL
West Virginia Regional Weather Roundup
National Weather Service Charleston WV
Issued by National Weather Service Pittsburgh PA
900 AM EST SAT DEC 03 2016

Note: "fair" indicates few or no clouds below 12,000 feet with no
significant weather and/or obstructions to visibility.

WVZ003-031500-
Northern Panhandle of West Virginia

CITY           SKY/WX    TMP DP  RH WIND       PRES   REMARKS
WHEELING       CLOUDY    34  27  75 W9        30.29S WCI  27
$$

WVZ009-031500-
Northwest West Virginia

CITY           SKY/WX    TMP DP  RH WIND       PRES   REMARKS
PARKERSBURG    CLOUDY    37  28  70 NW5       30.36S
$$

WVZ006-031500-
Western West Virginia

CITY           SKY/WX    TMP DP  RH WIND       PRES   REMARKS
HUNTINGTON     CLOUDY    39  29  67 CALM      30.35R
$$

WVZ015-031500-
West Central West Virginia

CITY           SKY/WX    TMP DP  RH WIND       PRES   REMARKS
CHARLESTON     CLOUDY    38  30  73 CALM      30.33S
$$

WVZ031-031500-
North Central West Virginia

CITY           SKY/WX    TMP DP  RH WIND       PRES   REMARKS
CLARKSBURG     CLOUDY    35  27  72 NW8       30.31S WCI  29
MORGANTOWN     CLOUDY    36  26  67 W5        30.31R
$$

WVZ035-042-031500-
South Central West Virginia

CITY           SKY/WX    TMP DP  RH WIND       PRES   REMARKS
BECKLEY        CLOUDY    32  23  69 NW6       30.28R WCI  26
BLUEFIELD      CLOUDY    29  22  75 N6        30.27R WCI  23
$$

WVZ045-031500-
Greenbrier Valley of West Virginia

CITY           SKY/WX    TMP DP  RH WIND       PRES   REMARKS
LEWISBURG      CLOUDY    32  23  68 NW6       30.27R WCI  26
$$

WVZ047-031500-
Northern Mountains of West Virginia

CITY           SKY/WX    TMP DP  RH WIND       PRES   REMARKS
ELKINS         CLOUDY    33  26  75 NW7       30.27F WCI  27
$$

WVZ052-031500-
Eastern Panhandle of West Virginia

CITY           SKY/WX    TMP DP  RH WIND       PRES   REMARKS
MARTINSBURG    CLOUDY    41  27  57 W14       30.23R
PETERSBURG     CLOUDY    41  30  64 W7        30.27F
$$



USA.gov is the U.S. government's official web portal to all federal, state and local government web resources and services.